Weather in Cholet

France     47°03′26″N   0°53′17″E
temp.,
°C
wind,
m/s
gust,
m/s
humid.,
%
clouds,
%
prec.,
mm/h
press.,
hPa
HPBL,
m
11 april, sun
sun1123:00+7n3697100 0.1 1010277
02:00+6n4897100 0.1 1011382
05:00+6nnw4896100 0.0 1011426
08:00+3nnw399872 0.0 1014245
11:00+7nnw458472 0.1 1015766
14:00+9nw5574100 0.8 10171231
17:00+9nw557034 0.7 10171181
20:00+6nnw598634 1.3 1019516
12 april, mon
mon1223:00+4nne61097100 0.9 1023690
02:00+3n499316 1.0 1026428
05:00−1nne410932 0.0 1028184
08:00−1nne23910 0.0 103051
11:00+6n45730 0.0 1031537
14:00+10n455224 0.0 10311757
17:00+11n455099 0.0 10301853
20:00+8n36745 0.1 1031169
13 april, tue
tue1323:00+2nne38840 0.0 1033121
02:00+1nne33910 0.0 103339
05:000nne22934 0.0 103314
08:00+1ne22945 0.0 103326
11:00+8nne34745 0.0 1033635
14:00+11ne455733 0.1 10321630
17:00+12ne555294 0.0 10301909
20:00+9nne487128 0.1 1030251
14 april, wed
wed1423:00+4ene41072100 0.0 1031159
02:00+1e3777100 0.0 1032100
05:000e377999 0.0 103198
08:000ene4107498 0.0 1031193
11:00+7ene6105514 0.0 1031792
14:00+10ene79465 0.0 10301516
17:00+11ene79475 0.0 10291698
20:00+8ne611610 0.0 1029527
15 april, thu
thu1523:00+5ne614550 0.0 1031404
02:00+1ne513620 0.0 1031262
05:00−1ne412710 0.0 1031215
08:00−1ne412770 0.0 1031231
11:00+7ene710560 0.0 10311051
14:00+10ene79465 0.0 10291838
17:00+11ene794589 0.0 10272284
20:00+8ne612605 0.0 1027662